Weather History for Madison, MN

Change the Weather History Date:

Monday, January 21, 2013

  Actual Average (KAQP) Record (KAQP)
Temperature  
Mean Temperature -4 °F -  
Max Temperature 1 °F 17 °F 35 °F (1997)
Min Temperature -9 °F 1 °F -27 °F (2011)
Degree Days  
Heating Degree Days 69    
Moisture  
Dew Point -14 °F    
Average Humidity 66    
Maximum Humidity 78    
Minimum Humidity 59    
Precipitation  
Precipitation 0.00 in - - ()
Sea Level Pressure  
Sea Level Pressure 30.34 in    
Wind  
Wind Speed 13 mph (WNW)    
Max Wind Speed 21 mph    
Max Gust Speed 26 mph    
Visibility 10 miles    
Events      
Averages and records for this station are not official NWS values.
T = Trace of Precipitation, MM = Missing Value Source: NWS Daily Summary

Daily Weather History Graph

Daily Weather History Graph

Search for Another Location

Airport:

Trip Planner

Search our weather history database for the weather conditions in past years. The results will help you decide how hot, cold, wet, or windy it might be!

Date:

Astronomy

Jan. 21, 2013 Rise Set
Actual Time 7:55 AM CST 5:17 PM CST
Civil Twilight 7:22 AM CST 5:49 PM CST
Nautical Twilight 6:46 AM CST 6:25 PM CST
Astronomical Twilight 6:12 AM CST 7:00 PM CST
Moon 12:57 PM CST (1/21) 3:24 AM CST (1/21)
Length of Visible Light 10h 27m
Length of Day
9h 22m
Waxing Gibbous, 75% of the Moon is Illuminated
Jan 21
Waxing Gibbous
Jan 26
Full
Feb 3
Last Quarter
Feb 10
New
Feb 17
First Quarter

Hourly Weather History & Observations

Time (CST) Temp. Windchill Dew Point Humidity Pressure Visibility Wind Dir Wind Speed Gust Speed Precip Events Conditions
12:14 AM -7.6 °F -32.3 °F -14.8 °F 71% 30.38 in 7.0 mi NNW 20.7 mph 26.5 mph N/A   Clear
12:33 AM -7.6 °F -29.8 °F -16.6 °F 65% 30.39 in 10.0 mi NNW 16.1 mph - N/A   Clear
12:54 AM -7.6 °F -31.7 °F -18.4 °F 59% 30.39 in 10.0 mi NW 19.6 mph - N/A   Clear
1:14 AM -7.6 °F -29.1 °F -18.4 °F 59% 30.39 in 10.0 mi NW 15.0 mph 21.9 mph N/A   Clear
1:33 AM -7.6 °F -26.6 °F -16.6 °F 65% 30.39 in 10.0 mi NW 11.5 mph 16.1 mph N/A   Clear
1:54 AM -9.4 °F -29.8 °F -16.6 °F 71% 30.40 in 10.0 mi NW 12.7 mph - N/A   Clear
2:14 AM -9.4 °F -27.9 °F -18.4 °F 65% 30.39 in 10.0 mi WNW 10.4 mph - N/A   Clear
2:33 AM -9.4 °F -27.9 °F -18.4 °F 65% 30.40 in 10.0 mi WNW 10.4 mph - N/A   Clear
2:54 AM -9.4 °F -27.9 °F -18.4 °F 65% 30.39 in 10.0 mi WNW 10.4 mph - N/A   Clear
3:14 AM -9.4 °F -26.8 °F -18.4 °F 65% 30.39 in 10.0 mi WNW 9.2 mph - N/A   Clear
3:33 AM -9.4 °F -27.9 °F -18.4 °F 65% 30.39 in 10.0 mi WNW 10.4 mph - N/A   Clear
3:54 AM -9.4 °F -26.8 °F -18.4 °F 65% 30.39 in 10.0 mi WNW 9.2 mph - N/A   Clear
4:13 AM -9.4 °F -27.9 °F -18.4 °F 65% 30.38 in 10.0 mi WNW 10.4 mph - N/A   Clear
4:34 AM -9.4 °F -29.8 °F -18.4 °F 65% 30.38 in 10.0 mi WNW 12.7 mph - N/A   Clear
4:54 AM -9.4 °F -29.8 °F -18.4 °F 65% 30.37 in 10.0 mi WNW 12.7 mph - N/A   Clear
5:13 AM -9.4 °F -30.6 °F -18.4 °F 65% 30.37 in 10.0 mi WNW 13.8 mph - N/A   Clear
5:34 AM -9.4 °F -27.9 °F -18.4 °F 65% 30.37 in 10.0 mi WNW 10.4 mph - N/A   Clear
5:53 AM -9.4 °F -28.9 °F -18.4 °F 65% 30.36 in 10.0 mi WNW 11.5 mph - N/A   Clear
6:14 AM -9.4 °F -29.8 °F -18.4 °F 65% 30.37 in 10.0 mi WNW 12.7 mph - N/A   Clear
6:34 AM -9.4 °F -28.9 °F -18.4 °F 65% 30.36 in 10.0 mi NW 11.5 mph - N/A   Clear
6:53 AM -9.4 °F -30.6 °F -18.4 °F 65% 30.36 in 10.0 mi NW 13.8 mph - N/A   Clear
7:14 AM -9.4 °F -29.8 °F -18.4 °F 65% 30.36 in 10.0 mi WNW 12.7 mph - N/A   Clear
7:34 AM -9.4 °F -29.8 °F -18.4 °F 65% 30.35 in 10.0 mi WNW 12.7 mph - N/A   Clear
7:53 AM -9.4 °F -29.8 °F -18.4 °F 65% 30.35 in 10.0 mi NW 12.7 mph - N/A   Clear
8:14 AM -9.4 °F -27.9 °F -18.4 °F 65% 30.36 in 10.0 mi WNW 10.4 mph - N/A   Clear
8:34 AM -9.4 °F -28.9 °F -18.4 °F 65% 30.36 in 10.0 mi WNW 11.5 mph - N/A   Clear
8:53 AM -9.4 °F -27.9 °F -18.4 °F 65% 30.37 in 10.0 mi NW 10.4 mph - N/A   Clear
9:14 AM -9.4 °F -29.8 °F -18.4 °F 65% 30.37 in 10.0 mi NW 12.7 mph - N/A   Clear
9:34 AM -7.6 °F -26.6 °F -16.6 °F 65% 30.38 in 10.0 mi NW 11.5 mph 16.1 mph N/A   Clear
9:53 AM -7.6 °F -25.7 °F -16.6 °F 65% 30.38 in 10.0 mi WNW 10.4 mph - N/A   Clear
10:14 AM -7.6 °F -27.5 °F -16.6 °F 65% 30.39 in 10.0 mi NW 12.7 mph - N/A   Clear
10:34 AM -5.8 °F -24.4 °F -16.6 °F 60% 30.39 in 10.0 mi NW 11.5 mph - N/A   Clear
10:53 AM -5.8 °F -27.5 °F -16.6 °F 60% 30.39 in 10.0 mi NW 16.1 mph 21.9 mph N/A   Clear
11:14 AM -5.8 °F -26.8 °F -14.8 °F 65% 30.38 in 10.0 mi NW 15.0 mph - N/A   Clear
11:34 AM -5.8 °F -26.8 °F -14.8 °F 65% 30.37 in 10.0 mi NW 15.0 mph 20.7 mph N/A   Clear
11:53 AM -4.0 °F -23.7 °F -14.8 °F 60% 30.36 in 10.0 mi NW 13.8 mph 18.4 mph N/A   Clear
12:14 PM -4.0 °F -22.1 °F -14.8 °F 60% 30.35 in 10.0 mi NW 11.5 mph - N/A   Clear
12:34 PM -2.2 °F -21.5 °F -13.0 °F 60% 30.35 in 10.0 mi NW 13.8 mph - N/A   Clear
12:53 PM -2.2 °F -21.5 °F -13.0 °F 60% 30.33 in 10.0 mi NW 13.8 mph 19.6 mph N/A   Clear
1:14 PM -0.4 °F -17.6 °F -11.2 °F 60% 30.33 in 10.0 mi WNW 11.5 mph - N/A   Clear
1:34 PM -0.4 °F -19.2 °F -11.2 °F 60% 30.31 in 10.0 mi WNW 13.8 mph 18.4 mph N/A   Clear
1:53 PM -0.4 °F -20.5 °F -11.2 °F 60% 30.31 in 10.0 mi WNW 16.1 mph - N/A   Clear
2:14 PM -0.4 °F -21.7 °F -11.2 °F 60% 30.30 in 10.0 mi WNW 18.4 mph 23.0 mph N/A   Clear
2:34 PM -0.4 °F -20.5 °F -9.4 °F 66% 30.30 in 10.0 mi WNW 16.1 mph 20.7 mph N/A   Clear
2:53 PM 1.4 °F -18.2 °F -9.4 °F 61% 30.30 in 10.0 mi NW 16.1 mph 20.7 mph N/A   Clear
3:14 PM 1.4 °F -18.2 °F -9.4 °F 61% 30.31 in 10.0 mi NW 16.1 mph 21.9 mph N/A   Clear
3:34 PM 1.4 °F -17.6 °F -9.4 °F 61% 30.30 in 10.0 mi NW 15.0 mph 20.7 mph N/A   Clear
3:53 PM 1.4 °F -16.1 °F -9.4 °F 61% 30.30 in 10.0 mi NW 12.7 mph 18.4 mph N/A   Clear
4:14 PM 1.4 °F -16.1 °F -9.4 °F 61% 30.30 in 10.0 mi NW 12.7 mph - N/A   Clear
4:34 PM 1.4 °F -17.6 °F -7.6 °F 66% 30.30 in 10.0 mi WNW 15.0 mph - N/A   Clear
4:53 PM 1.4 °F -15.3 °F -7.6 °F 66% 30.30 in 10.0 mi West 11.5 mph - N/A   Clear
5:14 PM 1.4 °F -13.5 °F -7.6 °F 66% 30.30 in 10.0 mi West 9.2 mph - N/A   Clear
5:34 PM -0.4 °F -17.6 °F -7.6 °F 72% 30.30 in 10.0 mi WNW 11.5 mph - N/A   Clear
5:53 PM -0.4 °F -15.7 °F -9.4 °F 66% 30.29 in 10.0 mi West 9.2 mph - N/A   Clear
6:14 PM -0.4 °F -17.6 °F -9.4 °F 66% 30.29 in 10.0 mi WNW 11.5 mph - N/A   Clear
6:33 PM -0.4 °F -15.7 °F -9.4 °F 66% 30.29 in 10.0 mi West 9.2 mph - N/A   Clear
6:54 PM -2.2 °F -18.0 °F -9.4 °F 71% 30.29 in 10.0 mi West 9.2 mph - N/A   Clear
7:14 PM -2.2 °F -15.6 °F -9.4 °F 71% 30.30 in 10.0 mi West 6.9 mph - N/A   Clear
7:33 PM -4.0 °F -16.3 °F -9.4 °F 78% 30.30 in 10.0 mi West 5.8 mph - N/A   Clear
7:54 PM -2.2 °F -16.8 °F -9.4 °F 71% 30.30 in 10.0 mi West 8.1 mph - N/A   Clear
8:14 PM -2.2 °F -16.8 °F -9.4 °F 71% 30.30 in 10.0 mi WNW 8.1 mph - N/A   Clear
8:33 PM -5.8 °F -22.4 °F -11.2 °F 77% 30.30 in 10.0 mi West 9.2 mph - N/A   Clear
8:54 PM -4.0 °F -19.0 °F -11.2 °F 71% 30.30 in 10.0 mi West 8.1 mph - N/A   Clear
9:14 PM -5.8 °F -21.2 °F -11.2 °F 77% 30.30 in 10.0 mi West 8.1 mph - N/A   Clear
9:33 PM -4.0 °F -21.2 °F -11.2 °F 71% 30.31 in 10.0 mi West 10.4 mph - N/A   Clear
9:54 PM -5.8 °F -21.2 °F -11.2 °F 77% 30.31 in 10.0 mi WNW 8.1 mph - N/A   Clear
10:14 PM -2.2 °F -16.8 °F -9.4 °F 71% 30.31 in 10.0 mi WNW 8.1 mph - N/A   Clear
10:33 PM -5.8 °F -18.4 °F -11.2 °F 77% 30.31 in 10.0 mi WNW 5.8 mph - N/A   Clear
10:54 PM -5.8 °F -18.4 °F -11.2 °F 77% 30.31 in 10.0 mi WNW 5.8 mph - N/A   Clear
11:14 PM -5.8 °F -18.4 °F -11.2 °F 77% 30.31 in 10.0 mi WNW 5.8 mph - N/A   Clear
11:33 PM -5.8 °F -14.5 °F -11.2 °F 77% 30.31 in 10.0 mi NW 3.5 mph - N/A   Clear
11:54 PM -5.8 °F -18.4 °F -13.0 °F 71% 30.32 in 10.0 mi NNW 5.8 mph - N/A   Clear